sat.trackr.live / text

‹ back to catalog

STARLINK-35424

NORAD 66460 · 2025-262E

PAYLOAD ACTIVE UNKNOWN

§ Identity

Operator
Country
US
Launch date
2025-11-15
Launch site
AFETR
Launch vehicle
Mass (kg)
RCS (m²)

Purposes: comms

External: N2YO · Heavens-Above · Gunter

§ Orbital elements

Epoch: 2026-05-24T16:55:58.874592Z

Period
94.27 min
Inclination
42.9994°
Eccentricity
0.0001739
Mean motion
15.27590559 rev/d
Perigee alt
481.8 km
Apogee alt
484.2 km
Semi-major
6,861.2 km
B*
6.3017e-4
RAAN
226.7390°
Arg perigee
268.1956°
Mean anomaly
91.8696°
Rev number
3,053

§ Raw data

STARLINK-354241 66460U 25262E   26144.70554253  .00017125  00000+0  63017-3 0  99922 66460  42.9994 226.7390 0001739 268.1956  91.8696 15.27590559 30535

JSON: /api/v1/satellites/66460 · /tle

For live sub-satellite position, see the globe view (requires WebGL).

§ Visibility from observer

Set your observer location to see the next 7 days of passes ≥ 10°. The values pass through the URL so the page stays shareable.

No JS? Fill the form by hand. The geolocation button needs JavaScript.